Regional Weather Roundup
Issued by NWS

Home | Current Version | Previous Version | Text Only | Print | Product List | Glossary On
Versions: 1 2 3 4 5 6 7 8 9 10 11 12 13 14 15 16 17 18 19 20 21 22 23 24 25 26 27 28 29 30 31 32 33 34 35 36 37 38 39 40 41 42 43 44 45 46 47 48
000
ASUS43 KDMX 121707
RWRIA

WEATHER ROUNDUP FOR IOWA
NATIONAL WEATHER SERVICE DES MOINES IA
1200 PM CDT SAT JUL 12 2014

NOTE: "FAIR" INDICATES FEW OR NO CLOUDS BELOW 12,000 FEET WITH NO
SIGNIFICANT WEATHER AND/OR OBSTRUCTIONS TO VISIBILITY.

* - THESE STATIONS ARE NOT NWS STATIONS...THUS NOT UNDER NWS
QUALITY CONTROL.  THEY ALSO DO NOT REPORT WEATHER SUCH
AS PRECIPITATION OR FOG.

IAZ001>003-012>014-020>022-031>034-043>046-121800-
   NORTHWEST IOWA

CITY           SKY/WX    TMP DP  RH WIND       PRES   REMARKS
CARROLL *      SUNNY     75  72  88 VRB5      30.00S
CHEROKEE *     DRIZZLE   70  70 100 N9        30.04S
DENISON *      SUNNY     77  72  83 S5        29.98S
LE MARS *      RAIN      70  68  94 N8        30.06R
ORANGE CITY *  LGT RAIN  70  66  88 N8        30.07F
SHELDON *      LGT RAIN  68  66  94 W5        30.07R
SIOUX CITY     CLOUDY    73  69  87 N9        30.03R
SPENCER        HVY RAIN  68  66  93 NW8       30.08R FOG
STORM LAKE *   LGT RAIN  73  73 100 N10       30.06R
$$

IAZ055>058-069>071-079>083-090>094-121800-
   SOUTHWEST IOWA

CITY           SKY/WX    TMP DP  RH WIND       PRES   REMARKS
ATLANTIC *     SUNNY     81  73  78 S6        29.99S HX  85
AUDUBON *      SUNNY     81  75  83 S7        30.00F HX  86
CLARINDA *     SUNNY     84  72  65 S9        30.01S HX  89
COUNCIL BLFS * SUNNY     81  75  83 S5        29.98S HX  86
CRESTON *      SUNNY     84  73  70 S13       30.00F HX  91
HARLAN  *      SUNNY     79  73  83 S6        30.02F HX  82
LAMONI         MOSUNNY   84  71  65 S13       30.02S HX  89
RED OAK *      SUNNY     84  73  70 S12       29.98F HX  91
SHENANDOAH *   SUNNY     82  73  74 S10       29.99F HX  88
$$

IAZ047>049-059>061-072>074-084-121800-
   CENTRAL IOWA

CITY           SKY/WX    TMP DP  RH WIND       PRES   REMARKS
AMES           CLOUDY    79  72  79 VRB3      30.00S HX  82
ANKENY *       SUNNY     79  73  83 S7        29.98F HX  82
CHARITON *     SUNNY     84  73  70 S12       30.00F HX  91
DES MOINES     CLOUDY    82  72  71 S8        29.98F HX  87
GRINNELL*      PTSUNNY   79  72  78 SE8       30.00F HX  82
KNOXVILLE *    SUNNY     82  73  74 S10       29.98F HX  88
MARSHALLTOWN   CLOUDY    77  72  84 VRB3      30.00S
PELLA *        PTSUNNY   84  73  70 S8        30.00F HX  91
PERRY *          N/A     79  72  78 S7        29.99F HX  82
$$

IAZ004>006-015-016-023>025-035-036-121800-
   NORTH CENTRAL IOWA

CITY           SKY/WX    TMP DP  RH WIND       PRES   REMARKS
ALGONA *       RAIN      72  72 100 NW7       30.05R
CLARION *      MOSUNNY   77  72  83 CALM      30.02R
ESTHERVILLE    RAIN      69  66  90 W7        30.08R FOG
FORT DODGE *   CLOUDY    73  70  88 CALM      30.03R
MASON CITY     LGT RAIN  77  72  84 VRB3      30.00S
FOREST CITY *  RAIN      73  72  94 NW7       30.04R
IOWA FALLS *   PTSUNNY   77  70  78 SE5       30.02F
$$

IAZ007>011-017>019-026>030-037>042-050>054-066-121800-
   NORTHEAST IOWA

CITY           SKY/WX    TMP DP  RH WIND       PRES   REMARKS
CEDAR RAPIDS   PTSUNNY   79  73  82 S5        30.01R HX  82
CHARLES CITY * CLOUDY    77  72  83 SW5       30.01R
CLINTON *      CLOUDY    77  72  83 S6        30.05R
DECORAH *        N/A    N/A N/A N/A MISG        N/A
DUBUQUE        CLOUDY    76  71  85 SE5       30.02S
MONTICELLO *   CLOUDY    79  73  83 SW5       30.01F HX  82
OELWEIN *      MOSUNNY   77  77 100 S6        30.02R
WATERLOO       PTSUNNY   77  71  82 CALM      30.00R
$$

IAZ064-065-067-068-078-121800-
   EAST CENTRAL IOWA

CITY           SKY/WX    TMP DP  RH WIND       PRES   REMARKS
DAVENPORT      PTSUNNY   79  71  76 S8        30.03R HX  82
IOWA CITY      PTSUNNY   80  74  81 S7        30.02S HX  85
MT. PLEASANT * CLOUDY    86  73  66 S8        30.01F HX  93
MUSCATINE *    MOSUNNY   82  73  74 S10       30.01F HX  88
QUAD CITIES    PTSUNNY   80  71  74 SW5       30.02S HX  84
$$

IAZ062-063-075>077-085>089-095>099-121800-
   SOUTHEAST IOWA

CITY           SKY/WX    TMP DP  RH WIND       PRES   REMARKS
BURLINGTON     CLOUDY    84  75  74 S7        30.02F HX  92
FAIRFIELD *    SUNNY     84  73  70 S6        30.01F HX  91
FORT MADISON * SUNNY     84  77  79 S9        30.04S HX  94
KEOKUK *       SUNNY     84  75  74 SW10      30.03S HX  92
OSKALOOSA *      N/A     82  73  74 S7        30.00F HX  88
CENTERVILLE *  SUNNY     84  75  74 S8        30.03F HX  92
OTTUMWA        CLOUDY    83  73  72 S8        30.00F HX  89
WASHINGTON *   MOSUNNY   82  75  78 S9        30.01F HX  89
$$

ABBREVIATIONS USED IN REMARKS
   TC - TEMPERATURES IN CELSIUS
  WCI - WIND CHILL INDEX
   HX - HEAT INDEX
  VSB - VISIBILITY
$$




USA.gov is the U.S. government's official web portal to all federal, state and local government web resources and services.